| time (UTC) | temp F | wind direction | speed MPH | gust MPH | rain 1hr in | rain 24hr in | rain mn in | humidity % | barometer mb |
| 20260502152015 | 55 | 270 | 8.0 | 13.0 | 0.00 | 0.00 | 0.00 | 40 | 1019.2 |
| 20260502151035 | 55 | 270 | 6.0 | 10.0 | 0.00 | 0.00 | 0.00 | 44 | 1019.2 |
| 20260502123017 | 38 | 225 | 1.0 | 2.0 | 0.00 | 0.00 | 0.00 | 79 | 1020.0 |
| 20260502122017 | 36 | 0 | 1.0 | 2.0 | 0.00 | 0.00 | 0.00 | 81 | 1019.8 |
| 20260502121017 | 35 | 0 | 1.0 | 2.0 | 0.00 | 0.00 | 0.00 | 83 | 1019.7 |
| 20260502115017 | 32 | 0.0 | 0.0 | 0.00 | 0.00 | 0.00 | 86 | 1019.7 | |
| 20260502114017 | 31 | 0.0 | 0.0 | 0.00 | 0.00 | 0.00 | 86 | 1019.6 | |
| 20260502113037 | 30 | 0.0 | 0.0 | 0.00 | 0.00 | 0.00 | 86 | 1019.5 | |
| 20260502112017 | 29 | 0.0 | 0.0 | 0.00 | 0.00 | 0.00 | 85 | 1019.4 | |
| 20260502111017 | 29 | 0.0 | 0.0 | 0.00 | 0.00 | 0.00 | 85 | 1019.3 | |
| 20260502110017 | 30 | 0.0 | 0.0 | 0.00 | 0.00 | 0.00 | 86 | 1019.4 | |
| 20260502105037 | 29 | 0.0 | 0.0 | 0.00 | 0.00 | 0.00 | 84 | 1019.4 | |
| 20260502104017 | 30 | 0.0 | 0.0 | 0.00 | 0.00 | 0.00 | 84 | 1019.4 | |
| 20260502103017 | 30 | 0.0 | 0.0 | 0.00 | 0.00 | 0.00 | 84 | 1019.3 | |
| 20260502102017 | 30 | 0.0 | 0.0 | 0.00 | 0.00 | 0.00 | 84 | 1019.4 | |
| 20260502101137 | 30 | 0.0 | 0.0 | 0.00 | 0.00 | 0.00 | 84 | 1019.4 | |
| 20260502091017 | 31 | 0.0 | 0.0 | 0.00 | 0.00 | 0.00 | 84 | 1019.2 | |
| 20260502071017 | 31 | 0.0 | 0.0 | 0.00 | 0.00 | 0.00 | 79 | 1019.3 | |
| 20260502070016 | 32 | 0.0 | 0.0 | 0.00 | 0.00 | 0.00 | 79 | 1019.2 | |
| 20260502065016 | 32 | 0.0 | 0.0 | 0.00 | 0.00 | 0.00 | 79 | 1019.4 | |
| 20260502064016 | 33 | 0.0 | 0.0 | 0.00 | 0.00 | 0.00 | 79 | 1019.4 | |
| 20260502063016 | 32 | 0.0 | 0.0 | 0.00 | 0.00 | 0.00 | 79 | 1019.5 | |
| 20260502062056 | 33 | 0.0 | 0.0 | 0.00 | 0.00 | 0.00 | 79 | 1019.5 | |
| 20260502061016 | 33 | 0.0 | 0.0 | 0.00 | 0.00 | 0.00 | 79 | 1019.5 | |
| 20260502060016 | 33 | 0.0 | 0.0 | 0.00 | 0.00 | 0.00 | 79 | 1019.6 | |
| 20260502055016 | 33 | 0.0 | 0.0 | 0.00 | 0.00 | 0.00 | 79 | 1019.4 | |
| 20260502054016 | 33 | 0.0 | 0.0 | 0.00 | 0.00 | 0.00 | 78 | 1019.5 | |
| 20260502053036 | 34 | 0.0 | 0.0 | 0.00 | 0.00 | 0.00 | 78 | 1019.5 | |
| 20260502052036 | 34 | 0.0 | 0.0 | 0.00 | 0.00 | 0.00 | 77 | 1019.4 | |
| 20260502051016 | 34 | 0.0 | 0.0 | 0.00 | 0.00 | 0.00 | 77 | 1019.4 | |
| 20260502050016 | 35 | 0.0 | 0.0 | 0.00 | 0.00 | 0.00 | 76 | 1019.4 | |
| 20260502045017 | 36 | 0.0 | 0.0 | 0.00 | 0.00 | 0.00 | 75 | 1019.4 | |
| 20260502044037 | 35 | 0.0 | 0.0 | 0.00 | 0.00 | 0.00 | 74 | 1019.3 | |
| 20260502043017 | 35 | 0.0 | 0.0 | 0.00 | 0.00 | 0.00 | 74 | 1019.3 | |
| 20260502042017 | 36 | 0.0 | 1.0 | 0.00 | 0.00 | 0.00 | 73 | 1019.3 | |
| 20260502041017 | 36 | 0.0 | 0.0 | 0.00 | 0.00 | 0.00 | 72 | 1019.3 | |
| 20260502040017 | 36 | 0.0 | 0.0 | 0.00 | 0.00 | 0.00 | 71 | 1019.3 | |
| 20260502035017 | 37 | 0.0 | 0.0 | 0.00 | 0.00 | 0.00 | 71 | 1019.3 | |
| 20260502034017 | 37 | 0.0 | 0.0 | 0.00 | 0.00 | 0.00 | 70 | 1019.4 | |
| 20260502033017 | 38 | 0.0 | 0.0 | 0.00 | 0.00 | 0.00 | 68 | 1019.4 | |
| 20260502032016 | 38 | 0.0 | 0.0 | 0.00 | 0.00 | 0.00 | 67 | 1019.4 | |
| 20260502031016 | 39 | 0.0 | 0.0 | 0.00 | 0.00 | 0.00 | 66 | 1019.5 | |
| 20260502030017 | 39 | 0.0 | 0.0 | 0.00 | 0.00 | 0.00 | 65 | 1019.6 | |
| 20260502025017 | 40 | 0.0 | 0.0 | 0.00 | 0.00 | 0.00 | 62 | 1019.3 | |
| 20260502024017 | 41 | 0.0 | 0.0 | 0.00 | 0.00 | 0.00 | 60 | 1019.3 | |
| 20260502023016 | 41 | 0.0 | 0.0 | 0.00 | 0.00 | 0.00 | 57 | 1019.3 | |
| 20260502022017 | 42 | 0.0 | 0.0 | 0.00 | 0.00 | 0.00 | 55 | 1019.3 | |
| 20260502021016 | 43 | 0.0 | 0.0 | 0.00 | 0.00 | 0.00 | 52 | 1019.2 | |
| 20260502020017 | 44 | 0.0 | 0.0 | 0.00 | 0.00 | 0.00 | 48 | 1019.1 | |
| 20260502015016 | 46 | 0.0 | 0.0 | 0.00 | 0.00 | 0.00 | 45 | 1019.0 | |
| 20260502014037 | 47 | 0.0 | 2.0 | 0.00 | 0.00 | 0.00 | 44 | 1018.9 | |
| 20260502013017 | 48 | 0.0 | 1.0 | 0.00 | 0.00 | 0.00 | 41 | 1018.9 | |
| 20260502012016 | 49 | 23 | 1.0 | 2.0 | 0.00 | 0.00 | 0.00 | 40 | 1018.9 |
| 20260502011017 | 50 | 23 | 2.0 | 3.0 | 0.00 | 0.00 | 0.00 | 37 | 1018.9 |
| 20260502010016 | 50 | 23 | 3.0 | 7.0 | 0.00 | 0.00 | 0.00 | 37 | 1018.9 |
| 20260502005017 | 51 | 0 | 4.0 | 7.0 | 0.00 | 0.00 | 0.00 | 37 | 1018.7 |
| 20260502004017 | 51 | 338 | 4.0 | 7.0 | 0.00 | 0.00 | 0.00 | 35 | 1018.7 |
| 20260502003016 | 51 | 338 | 7.0 | 11.0 | 0.00 | 0.00 | 0.00 | 36 | 1018.7 |
| 20260502002036 | 52 | 338 | 5.0 | 8.0 | 0.00 | 0.00 | 0.00 | 35 | 1018.6 |
| 20260502001016 | 52 | 338 | 5.0 | 8.0 | 0.00 | 0.00 | 0.00 | 34 | 1018.5 |
| 20260502000016 | 51 | 0 | 5.0 | 8.0 | 0.00 | 0.00 | 0.00 | 35 | 1018.5 |
| 20260501235016 | 53 | 0 | 7.0 | 11.0 | 0.00 | 0.00 | 0.00 | 33 | 1018.5 |
| 20260501234036 | 53 | 23 | 5.0 | 9.0 | 0.00 | 0.00 | 0.00 | 33 | 1018.5 |
| 20260501233016 | 52 | 0 | 4.0 | 8.0 | 0.00 | 0.00 | 0.00 | 34 | 1018.4 |
| 20260501232016 | 53 | 315 | 7.0 | 11.0 | 0.00 | 0.00 | 0.00 | 32 | 1018.5 |
| 20260501231016 | 54 | 315 | 7.0 | 11.0 | 0.00 | 0.00 | 0.00 | 33 | 1018.5 |
| 20260501230016 | 53 | 0 | 6.0 | 10.0 | 0.00 | 0.00 | 0.00 | 34 | 1018.5 |
| 20260501225016 | 52 | 0 | 6.0 | 9.0 | 0.00 | 0.00 | 0.00 | 34 | 1018.4 |
| 20260501224016 | 53 | 338 | 6.0 | 9.0 | 0.00 | 0.00 | 0.00 | 33 | 1018.5 |
| 20260501223016 | 53 | 315 | 6.0 | 9.0 | 0.00 | 0.00 | 0.00 | 36 | 1018.5 |
| 20260501222016 | 51 | 338 | 7.0 | 11.0 | 0.00 | 0.00 | 0.00 | 36 | 1018.7 |
| 20260501221016 | 52 | 0 | 10.0 | 15.0 | 0.00 | 0.00 | 0.00 | 35 | 1018.5 |
| 20260501220036 | 53 | 338 | 9.0 | 12.0 | 0.00 | 0.00 | 0.00 | 33 | 1018.5 |
| 20260501215016 | 53 | 338 | 9.0 | 14.0 | 0.00 | 0.00 | 0.00 | 33 | 1018.6 |
| 20260501214016 | 53 | 315 | 8.0 | 14.0 | 0.00 | 0.00 | 0.00 | 34 | 1018.5 |
| 20260501213016 | 54 | 0 | 11.0 | 22.0 | 0.00 | 0.00 | 0.00 | 33 | 1018.5 |
| 20260501212016 | 53 | 0 | 4.0 | 8.0 | 0.00 | 0.00 | 0.00 | 33 | 1018.6 |
| 20260501211016 | 53 | 0 | 6.0 | 10.0 | 0.00 | 0.00 | 0.00 | 34 | 1018.7 |
| 20260501210016 | 53 | 45 | 8.0 | 12.0 | 0.00 | 0.00 | 0.00 | 35 | 1018.8 |
| 20260501205016 | 54 | 0 | 7.0 | 13.0 | 0.00 | 0.00 | 0.00 | 33 | 1018.9 |
| 20260501204016 | 53 | 338 | 5.0 | 11.0 | 0.00 | 0.00 | 0.00 | 35 | 1019.0 |
| 20260501203016 | 51 | 338 | 6.0 | 13.0 | 0.00 | 0.00 | 0.00 | 37 | 1019.0 |
| 20260501202016 | 53 | 45 | 6.0 | 11.0 | 0.00 | 0.00 | 0.00 | 36 | 1019.1 |
| 20260501201016 | 53 | 0 | 6.0 | 13.0 | 0.00 | 0.00 | 0.00 | 36 | 1019.1 |
| 20260501200016 | 53 | 0 | 7.0 | 11.0 | 0.00 | 0.00 | 0.00 | 36 | 1019.2 |
| 20260501195016 | 53 | 338 | 10.0 | 15.0 | 0.00 | 0.00 | 0.00 | 36 | 1019.1 |
| 20260501194016 | 51 | 45 | 5.0 | 10.0 | 0.00 | 0.00 | 0.00 | 37 | 1019.2 |
| 20260501193016 | 52 | 68 | 9.0 | 13.0 | 0.00 | 0.00 | 0.00 | 37 | 1019.1 |
| 20260501192016 | 52 | 23 | 5.0 | 8.0 | 0.00 | 0.00 | 0.00 | 38 | 1019.2 |
| 20260501191016 | 51 | 0 | 9.0 | 13.0 | 0.00 | 0.00 | 0.00 | 38 | 1019.3 |
| 20260501190036 | 51 | 0 | 6.0 | 11.0 | 0.00 | 0.00 | 0.00 | 37 | 1019.2 |
| 20260501185016 | 51 | 68 | 6.0 | 14.0 | 0.00 | 0.00 | 0.00 | 38 | 1019.1 |
| 20260501184016 | 52 | 45 | 6.0 | 11.0 | 0.00 | 0.00 | 0.00 | 36 | 1019.2 |
| 20260501183016 | 50 | 45 | 8.0 | 12.0 | 0.00 | 0.00 | 0.00 | 40 | 1019.2 |
| 20260501182015 | 50 | 45 | 6.0 | 15.0 | 0.00 | 0.00 | 0.00 | 39 | 1019.1 |
| 20260501181015 | 49 | 0 | 6.0 | 10.0 | 0.00 | 0.00 | 0.00 | 40 | 1019.2 |
| 20260501180016 | 51 | 45 | 5.0 | 11.0 | 0.00 | 0.00 | 0.00 | 38 | 1019.2 |
| 20260501175015 | 52 | 45 | 9.0 | 12.0 | 0.00 | 0.00 | 0.00 | 36 | 1019.4 |
| 20260501174016 | 50 | 0 | 6.0 | 13.0 | 0.00 | 0.00 | 0.00 | 39 | 1019.3 |
| 20260501173035 | 52 | 0 | 7.0 | 16.0 | 0.00 | 0.00 | 0.00 | 38 | 1019.4 |
| 20260501172035 | 50 | 45 | 9.0 | 21.0 | 0.00 | 0.00 | 0.00 | 40 | 1019.3 |
| 20260501171015 | 50 | 68 | 7.0 | 12.0 | 0.00 | 0.00 | 0.00 | 42 | 1019.3 |
| 20260501170035 | 50 | 23 | 7.0 | 12.0 | 0.00 | 0.00 | 0.00 | 41 | 1019.3 |
| 20260501165015 | 49 | 68 | 7.0 | 15.0 | 0.00 | 0.00 | 0.00 | 42 | 1019.3 |
| 20260501164016 | 49 | 68 | 8.0 | 13.0 | 0.00 | 0.00 | 0.00 | 41 | 1019.3 |
| 20260501163016 | 51 | 45 | 5.0 | 15.0 | 0.00 | 0.00 | 0.00 | 40 | 1019.2 |
| 20260501162015 | 49 | 68 | 6.0 | 15.0 | 0.00 | 0.00 | 0.00 | 43 | 1019.2 |
| 20260501161015 | 47 | 68 | 6.0 | 9.0 | 0.00 | 0.00 | 0.00 | 43 | 1019.2 |
| 20260501160035 | 47 | 90 | 7.0 | 11.0 | 0.00 | 0.00 | 0.00 | 43 | 1019.2 |
| 20260501155015 | 49 | 68 | 9.0 | 14.0 | 0.00 | 0.00 | 0.00 | 42 | 1019.3 |
| 20260501154015 | 48 | 45 | 5.0 | 9.0 | 0.00 | 0.00 | 0.00 | 43 | 1019.2 |